Wind_Speed
89 89 88 87 87 86 86 86 86 86 86 86 87 88 89 90 91 91 92 92 92 93 93 93 94 94 95 95 96 96 97 97 98 99 99 100 100 101 101 100 100 99 98 96 94 92 89 86 83 79 76 73 70 67 65 63 62 61 60 59 58 58 58 57 57 57 57 57 57 58 58 59 60 60 61 62 62 62 63 63 64 65 65 66 67 67
88 87 87 86 86 86 87 87 87 87 87 88 88 89 90 92 93 94 94 95 95 95 96 96 97 97 98 99 99 100 100 101 102 102 103 103 103 103 102 102 101 99 98 96 93 91 87 84 81 78 75 72 69 67 65 64 62 61 59 58 58 57 56 56 55 55 55 54 54 54 54 54 55 55 56 56 56 56 56 57 57 58 58 59 59 60
87 87 87 87 87 87 88 88 89 89 89 89 90 91 92 94 95 96 97 98 98 98 98 99 99 100 101 101 102 103 103 104 104 105 105 105 105 104 103 102 101 99 97 95 92 89 86 83 80 78 75 73 70 69 67 65 64 62 61 60 59 58 57 57 56 55 55 54 54 53 53 53 53 53 53 53 53 53 52 52 53 53 53 53 53 54
87 88 88 88 89 89 90 90 91 91 91 92 93 93 95 96 97 98 100 100 101 101 101 101 102 102 103 104 104 105 106 106 106 107 107 106 106 105 104 102 101 99 96 94 91 88 86 83 80 78 76 74 72 71 69 68 66 65 64 63 62 61 60 59 58 58 57 56 55 55 54 54 53 53 53 53 53 52 52 51 51 51 50 50 50 51
89 90 90 91 91 92 92 93 93 94 94 95 96 96 97 98 99 101 102 103 104 104 104 105 105 105 105 106 106 107 107 108 108 108 108 107 106 105 104 102 100 98 96 93 90 88 86 83 81 80 78 76 75 73 72 71 70 68 67 66 65 64 63 62 62 61 60 59 58 57 56 56 55 55 55 54 54 53 52 52 51 51 50 50 50 50
92 92 93 93 94 95 95 96 96 97 98 98 99 99 100 101 101 102 103 105 106 107 107 107 108 108 108 108 108 108 108 108 109 109 108 108 106 105 103 101 99 97 95 92 90 88 86 84 83 81 80 79 77 76 75 74 73 72 71 70 69 68 67 66 65 64 63 62 61 60 59 59 58 57 57 56 56 55 54 54 53 52 51 51 51 51
95 96 96 97 97 98 98 99 100 101 101 102 102 103 103 103 104 104 105 106 107 108 109 110 110 110 110 110 110 109 109 109 109 109 108 107 106 104 103 100 98 96 94 92 90 88 86 85 84 83 82 81 80 79 78 77 76 75 74 73 72 71 71 70 69 68 67 66 65 64 63 62 61 60 59 59 58 57 56 56 55 54 53 53 52 52
98 99 100 100 101 102 102 103 103 104 104 105 105 106 106 106 106 106 107 107 108 109 110 111 112 112 112 112 111 111 110 110 109 109 108 107 105 104 101 99 97 95 93 91 90 88 87 86 86 85 84 83 82 82 81 80 79 78 77 76 76 75 74 73 72 71 71 70 69 68 67 66 65 64 63 62 61 60 59 58 57 56 55 55 54 54
102 102 103 104 104 105 105 106 106 106 107 107 108 108 108 108 109 109 109 109 110 110 111 112 113 113 113 113 113 112 111 110 109 108 107 106 104 102 101 99 97 95 93 91 90 89 89 88 87 87 86 85 84 84 83 82 82 81 80 79 79 78 77 76 75 75 74 73 72 71 70 69 68 67 66 65 64 63 62 61 60 59 58 57 56 56
104 105 106 106 107 107 108 109 109 109 109 110 110 110 110 111 111 111 112 112 112 111 112 112 113 114 114 114 113 113 112 110 108 107 105 104 103 101 100 98 97 95 94 93 92 91 90 90 89 88 88 87 86 86 85 84 84 83 83 82 81 81 80 79 79 78 77 76 75 74 73 72 71 70 69 68 67 66 65 64 63 62 60 59 59 58
107 107 108 109 109 110 110 111 111 112 112 112 112 112 113 113 113 114 115 115 114 113 113 113 113 113 114 113 113 112 111 110 108 106 104 103 101 100 99 98 97 96 95 94 93 93 92 92 91 90 90 89 88 88 87 86 86 85 85 84 84 83 83 82 82 81 80 79 78 77 76 75 74 73 72 71 70 69 68 67 66 64 63 62 61 60
109 110 110 111 112 112 113 113 114 114 114 115 116 116 116 115 115 115 116 116 115 115 114 113 112 112 112 112 111 110 109 109 108 106 104 103 101 100 100 99 99 98 97 97 96 95 94 94 93 92 92 91 90 90 89 88 88 88 87 87 86 86 85 85 84 83 83 82 81 80 79 78 77 76 75 74 73 72 71 70 68 67 66 64 63 62
111 112 113 113 114 115 115 116 116 117 117 118 118 119 119 117 116 116 116 116 115 114 113 112 111 110 109 109 108 108 107 106 106 105 104 104 103 102 101 101 100 100 99 99 98 97 97 96 95 95 94 93 93 92 91 91 90 90 89 89 88 88 87 87 86 86 85 84 83 83 82 81 80 79 78 77 76 75 74 73 71 70 68 67 66 65
114 114 115 116 116 117 117 118 119 119 119 119 119 119 118 117 116 115 115 114 113 111 110 110 110 108 107 106 105 105 104 104 104 104 104 104 104 104 103 103 102 102 101 101 100 99 99 98 98 97 96 96 95 94 94 93 93 92 92 91 90 90 89 89 88 88 87 86 86 85 84 83 82 81 81 80 79 78 77 75 74 73 71 70 68 67
116 117 117 118 118 119 119 119 119 120 119 118 118 117 116 115 115 113 113 112 111 109 108 107 107 106 105 105 104 104 104 104 104 104 104 104 105 105 105 105 104 104 103 102 102 101 100 100 99 99 98 98 97 97 96 96 95 94 94 93 93 92 92 91 91 90 89 89 88 87 86 85 85 84 83 82 81 80 79 78 77 76 74 72 71 69
117 118 118 119 119 119 119 118 118 118 118 117 116 115 115 114 113 111 111 110 109 108 107 107 106 106 106 105 105 105 105 105 105 105 105 105 105 106 106 107 106 106 105 104 104 104 103 102 102 101 101 100 100 99 99 98 98 97 97 96 95 95 94 94 93 92 92 91 90 89 88 87 87 86 85 84 84 83 82 81 80 79 77 75 74 72
118 118 118 118 118 118 117 117 117 116 116 115 114 113 113 112 112 111 110 110 110 109 109 108 108 108 108 108 107 107 107 107 107 106 106 106 106 106 107 108 108 108 107 107 106 106 105 105 104 103 103 103 102 102 101 101 100 100 99 99 98 97 97 96 95 95 94 93 92 91 90 90 89 88 87 86 86 85 84 83 82 81 80 79 77 75
117 117 117 116 116 116 115 115 115 114 114 114 113 113 113 112 112 112 112 112 112 112 111 111 110 110 110 111 110 109 109 109 109 109 108 108 107 107 107 108 109 110 110 109 109 108 108 107 107 106 105 105 105 104 104 103 103 102 102 101 101 100 100 99 98 97 97 96 95 94 93 92 91 90 89 88 88 87 86 85 85 84 83 82 80 78
115 114 114 114 114 114 113 113 113 114 114 114 114 114 114 114 114 114 114 114 114 114 113 113 113 112 112 112 112 111 111 111 111 111 110 110 109 108 108 109 110 111 111 111 111 111 110 110 109 108 108 107 107 107 106 106 105 105 104 104 103 103 102 101 101 100 99 98 97 96 95 94 93 92 91 90 89 89 88 87 87 86 85 84 83 82
113 112 112 113 113 113 113 114 114 114 115 115 115 116 116 116 116 116 116 116 116 115 115 115 115 114 114 113 113 113 112 113 113 113 113 112 111 110 110 110 111 112 112 112 112 112 112 112 112 111 110 109 109 109 108 108 108 107 107 106 106 105 105 104 103 102 102 101 100 99 98 96 95 94 93 92 91 90 90 89 88 88 87 86 86 84
112 112 113 113 113 114 115 115 115 116 116 116 117 117 117 117 117 118 117 117 117 117 117 116 116 116 115 115 115 115 114 114 115 115 115 114 113 112 111 112 112 113 113 113 113 113 114 114 114 113 112 111 111 110 110 110 109 109 109 108 108 107 107 106 105 105 104 103 102 101 100 99 98 96 95 94 93 92 91 90 89 89 89 88 87 86
113 113 114 114 114 115 115 116 116 117 117 117 118 119 119 119 119 119 119 119 119 119 119 118 118 117 116 116 117 116 116 116 117 117 116 116 115 114 113 113 114 114 114 114 114 114 114 115 115 115 114 113 113 112 112 111 111 111 110 110 110 109 109 108 107 106 106 105 104 103 102 101 100 98 97 96 95 94 93 92 91 90 90 89 89 88
114 114 114 114 115 115 116 117 117 118 118 119 119 120 120 121 121 121 121 121 121 120 120 120 119 119 118 118 118 118 117 117 118 118 118 118 117 116 115 114 115 116 116 115 115 114 115 116 116 116 116 115 114 114 113 113 112 112 112 112 111 111 110 110 109 108 107 106 105 104 103 103 101 100 99 98 97 96 95 94 93 92 91 91 90 89
115 115 115 116 116 117 117 118 119 119 120 120 121 121 122 122 122 122 122 122 122 122 122 121 121 120 120 119 119 119 119 119 119 119 119 119 119 118 117 116 117 117 118 117 116 115 116 116 117 117 117 116 116 115 115 114 114 113 113 113 113 112 112 111 110 109 108 107 107 106 105 104 103 102 101 100 99 98 97 96 94 93 93 92 91 90
116 117 117 118 118 119 119 120 120 121 121 122 123 123 123 124 124 124 123 123 123 123 123 123 122 122 121 120 120 120 120 120 120 120 121 121 121 120 118 118 118 119 119 118 117 117 117 117 117 117 117 117 117 117 116 115 115 115 115 114 114 114 113 112 111 110 109 109 108 107 106 106 105 104 103 102 101 100 99 98 96 95 94 93 92 91
118 119 119 120 120 121 121 122 122 123 123 124 124 124 125 125 125 125 125 125 125 124 124 124 124 123 122 121 121 121 121 121 121 121 122 122 122 121 120 119 119 119 120 120 119 118 118 118 118 118 118 118 118 118 118 117 116 116 116 116 116 115 115 114 112 111 111 110 109 109 108 107 106 105 104 103 103 102 101 99 98 97 96 95 94 92
121 121 121 122 122 123 123 123 124 124 125 125 125 126 126 126 126 126 126 126 126 125 125 125 125 124 122 122 122 122 122 122 122 122 122 123 123 123 121 120 119 119 120 120 120 120 119 119 118 118 118 118 118 118 118 118 118 117 117 117 117 117 116 115 114 113 112 111 111 110 109 108 108 107 106 105 104 104 103 102 100 99 98 97 95 94
122 123 123 123 124 124 125 125 125 126 126 127 127 127 127 127 128 128 128 127 127 126 126 125 125 124 123 122 122 122 122 122 122 122 122 122 123 122 121 119 118 118 119 120 120 119 119 119 118 118 118 117 117 118 118 118 118 118 118 118 118 118 117 116 115 114 113 113 112 111 111 110 109 108 107 106 106 105 105 104 102 101 99 98 97 95
124 124 124 125 125 126 126 126 127 127 127 128 128 129 129 129 129 129 129 128 127 126 126 125 124 123 123 122 122 121 121 122 122 121 121 122 122 121 119 117 116 115 116 118 119 118 118 118 117 117 116 116 116 116 117 117 118 118 119 119 119 119 118 117 116 115 114 113 113 112 112 111 110 109 109 108 107 107 107 106 104 102 100 99 98 96
125 125 126 126 127 127 127 127 128 128 129 129 129 130 130 130 130 129 129 128 127 127 126 125 123 122 121 121 120 120 120 119 119 118 119 120 120 118 116 114 113 112 113 115 116 116 116 116 115 114 114 114 114 114 115 115 116 117 118 119 119 118 117 116 115 115 114 114 113 113 113 112 111 110 110 109 109 109 109 108 106 104 102 100 99 98
126 126 127 127 128 128 128 128 129 129 129 130 130 130 130 130 130 129 128 127 126 125 124 123 122 121 119 119 118 118 117 116 115 114 115 116 117 115 113 111 110 109 109 110 112 113 113 112 111 111 110 111 111 111 112 112 114 115 116 117 117 117 116 115 114 113 113 113 113 113 112 112 112 111 110 110 110 111 111 110 108 105 102 101 100 99
127 127 128 128 128 129 129 129 129 129 130 130 130 130 130 130 129 128 127 126 125 124 123 122 120 119 117 116 115 114 113 112 111 110 110 112 112 111 109 108 107 106 106 106 106 107 108 108 107 107 106 107 107 107 108 109 110 112 114 115 115 115 114 112 111 111 111 111 111 111 111 111 111 111 110 110 111 112 112 111 109 105 103 101 100 99
128 128 128 129 129 129 129 129 129 129 129 129 129 129 129 128 127 126 125 124 123 122 120 119 118 116 114 113 111 110 109 108 107 106 106 107 107 106 105 103 103 103 102 102 101 101 102 102 102 102 102 102 103 103 103 104 106 108 110 111 112 112 110 109 108 108 108 109 109 109 110 110 110 110 110 110 111 112 113 112 109 106 103 102 101 100
129 128 129 129 129 129 129 129 129 128 128 128 128 127 127 126 125 124 123 122 120 119 117 116 115 113 111 109 107 105 104 103 102 102 101 102 102 101 100 99 98 98 97 97 96 96 96 96 96 97 97 97 98 98 99 100 101 103 105 107 108 108 107 105 105 105 105 106 106 107 107 107 108 108 108 109 110 111 112 111 108 105 103 102 102 100
128 128 128 128 128 128 128 127 127 126 126 125 125 124 124 123 122 121 120 118 117 115 114 112 110 109 107 105 103 102 100 99 98 97 97 97 97 96 95 94 93 93 93 92 92 91 91 90 90 91 91 92 93 93 94 95 97 99 100 102 103 103 102 101 101 101 101 102 103 104 104 105 105 106 106 107 108 109 110 109 107 104 103 103 101 100
127 127 127 126 126 126 125 125 124 124 123 122 121 121 120 119 118 117 116 114 113 111 109 107 105 103 102 100 99 97 96 95 94 94 93 93 92 91 90 89 88 88 88 88 87 87 86 86 86 86 86 86 87 88 89 91 92 94 96 97 98 98 98 97 96 97 97 98 99 100 101 102 102 103 104 105 106 107 107 106 105 104 103 102 101 99
125 125 124 124 123 123 122 121 121 120 119 118 118 117 116 115 113 112 111 109 108 106 105 103 101 99 97 95 94 93 92 91 91 90 90 89 88 87 86 85 84 84 84 84 84 83 82 82 81 81 81 81 82 83 85 86 88 90 91 92 93 93 93 92 92 92 93 94 95 96 97 98 99 100 101 102 103 104 104 104 103 102 102 101 100 98
122 122 121 120 119 119 118 117 117 116 115 114 113 112 111 110 109 107 106 105 103 102 100 98 97 95 93 91 90 89 88 87 87 87 86 86 84 83 82 82 81 81 81 81 81 80 79 79 78 77 77 77 78 79 80 82 84 86 87 88 88 88 88 88 88 88 89 90 91 92 93 94 95 96 97 98 100 101 101 101 101 100 100 99 98 98
119 118 117 116 115 115 114 113 112 111 110 109 108 107 106 105 104 102 101 100 99 97 96 94 93 91 90 88 86 85 84 84 84 84 83 82 81 80 79 78 78 77 78 78 78 77 76 76 75 74 74 74 74 75 77 79 81 82 83 84 84 84 84 84 84 84 85 86 87 88 89 90 92 93 94 95 96 97 98 98 98 97 97 96 96 96
114 114 113 112 111 110 110 109 108 106 105 104 103 102 101 100 99 98 97 96 95 93 92 91 89 88 86 84 83 82 81 81 80 80 80 80 78 77 76 75 74 74 75 75 75 75 74 73 72 71 71 71 72 72 74 75 77 79 80 80 80 80 80 80 80 80 80 81 82 84 85 87 88 89 90 92 93 94 94 95 94 94 93 94 94 95
110 109 109 108 107 106 105 104 103 102 101 100 99 98 97 96 95 94 93 92 91 90 89 87 86 84 83 81 80 79 78 77 77 77 77 77 76 74 73 72 71 71 72 72 72 72 71 70 69 68 68 69 69 70 71 73 74 76 77 77 77 77 76 75 75 76 76 77 78 80 81 83 84 86 87 88 89 90 91 91 90 90 90 91 92 93
106 105 104 103 102 101 100 99 98 97 96 95 94 94 93 92 91 90 89 88 87 86 85 84 82 81 79 78 76 75 75 74 74 74 74 73 73 72 71 70 69 69 69 70 69 69 68 67 66 66 66 66 67 68 69 70 72 73 74 74 74 73 72 72 72 72 73 74 75 76 78 79 81 83 84 85 86 87 87 87 86 87 88 89 91 92
101 100 99 98 97 96 95 95 94 93 92 91 90 90 89 88 87 87 86 85 84 83 82 80 79 78 76 75 73 72 71 71 70 70 70 70 70 69 69 68 67 67 67 67 67 66 65 64 63 63 63 64 65 66 67 68 69 70 71 71 70 69 69 68 68 69 70 71 72 74 75 77 78 80 81 82 83 83 83 83 83 84 86 87 89 91
96 95 94 94 93 92 91 90 90 89 88 87 87 86 85 84 83 83 82 81 80 79 78 77 76 74 73 72 70 69 69 68 67 67 67 67 67 67 66 66 65 64 64 64 64 63 62 61 61 61 61 62 63 63 64 65 66 67 67 67 66 66 65 65 66 66 68 69 70 71 73 75 76 77 78 79 80 80 80 80 81 83 84 86 88 89
92 91 90 89 88 88 87 86 86 85 84 84 83 82 82 81 80 79 78 77 77 76 75 74 72 71 70 68 68 67 66 65 65 64 64 64 64 64 64 63 63 62 62 61 61 60 59 58 58 58 59 59 60 61 62 63 63 64 64 63 62 62 62 63 64 65 66 67 68 70 71 72 74 75 76 76 77 77 78 79 80 81 83 85 86 88
88 87 86 85 85 84 83 83 82 81 81 80 79 79 78 77 77 76 75 74 74 73 71 70 69 68 67 66 65 64 63 63 62 62 61 61 61 61 61 61 60 60 59 58 58 57 56 56 56 56 57 57 58 59 59 60 60 60 60 59 59 60 60 61 62 63 65 66 67 68 69 71 72 73 74 74 74 75 76 77 78 80 81 83 85 87
84 83 82 82 81 80 80 79 78 78 77 76 76 75 75 74 73 73 72 71 70 69 68 67 66 65 64 63 62 61 61 60 59 59 59 59 58 58 58 58 57 57 56 56 55 54 54 54 54 54 55 55 56 56 56 56 57 57 57 57 57 58 59 60 61 62 63 64 65 66 68 69 70 71 71 72 72 73 74 75 76 78 80 82 84 86
80 79 79 78 77 77 76 75 75 74 74 73 73 72 71 71 70 70 69 68 67 66 66 65 64 63 62 61 60 59 58 57 57 56 56 56 55 55 55 55 54 54 53 53 52 52 52 52 52 52 52 53 53 53 53 54 54 54 55 55 56 57 58 59 60 61 62 63 64 65 66 67 68 68 69 69 70 71 72 74 75 77 79 82 84 86
77 76 75 75 74 73 73 72 72 71 71 70 70 69 68 68 67 67 66 65 64 64 63 62 61 60 59 58 57 56 56 55 55 54 54 53 53 52 52 52 51 51 50 50 49 49 49 49 50 50 50 50 50 51 51 51 52 52 53 54 54 55 56 57 59 60 61 61 62 63 64 64 65 66 66 67 68 69 71 72 74 76 79 81 84 85
74 73 72 71 71 70 70 69 69 68 68 67 67 66 66 65 64 64 63 62 62 61 60 60 59 58 57 56 55 54 53 53 52 52 51 51 50 49 49 49 48 48 47 47 47 47 47 47 47 48 48 48 48 48 49 49 50 51 52 52 53 54 55 56 58 59 59 60 60 61 61 62 63 63 64 65 66 68 69 71 73 76 78 81 83 84
71 70 69 68 68 67 67 67 66 66 65 64 64 63 63 62 61 61 60 59 59 58 57 57 56 55 54 53 52 52 51 51 50 50 49 48 48 47 46 46 46 45 45 45 45 45 45 45 45 45 45 46 46 46 47 48 48 49 50 51 51 52 54 55 56 57 57 58 58 58 59 60 61 62 63 64 65 66 68 70 73 75 78 81 82 81
Wind_Direction
280 281 282 282 283 284 284 285 285 286 286 287 287 288 288 288 289 289 289 289 290 290 290 290 290 290 290 290 290 291 291 291 291 292 292 292 293 293 293 294 294 295 295 295 295 295 295 295 295 295 295 294 294 293 292 292 291 290 289 288 287 286 285 285 284 284 283 283 283 282 282 282 282 281 281 281 281 281 281 281 281 281 281 282 282 282
284 284 285 285 286 286 286 286 287 287 287 287 287 287 288 288 288 288 289 289 289 289 289 290 290 290 290 290 290 291 291 291 291 292 292 292 293 293 293 294 294 295 295 295 295 295 295 295 295 295 295 294 294 293 293 292 291 291 290 289 289 288 287 287 286 286 285 285 285 285 284 284 284 284 284 284 284 284 284 284 284 284 284 284 284 284
286 286 286 286 286 286 286 286 286 286 286 286 286 286 287 287 287 287 288 288 288 289 289 289 289 289 289 289 290 290 290 291 291 291 292 292 293 293 293 294 294 295 295 295 295 295 295 295 295 295 294 294 294 293 293 292 292 291 291 290 290 289 288 288 287 287 287 286 286 286 286 286 286 286 286 286 286 286 286 286 286 286 286 286 286 286
286 286 285 285 285 285 285 285 285 285 285 285 285 285 285 286 286 286 287 287 287 288 288 288 288 288 288 289 289 289 290 290 291 291 291 292 292 293 293 294 294 294 294 294 295 294 294 294 294 294 294 294 293 293 293 292 292 291 291 291 290 290 289 288 288 288 287 287 287 287 286 286 286 286 287 287 287 287 287 287 288 288 288 288 288 287
284 283 283 283 283 283 283 283 283 284 284 284 284 284 284 284 285 285 286 286 286 287 287 287 287 287 288 288 288 289 289 290 290 291 291 292 292 293 293 293 293 294 294 294 294 294 294 294 294 293 293 293 293 293 292 292 292 291 291 290 290 290 289 289 289 288 288 287 287 287 287 286 286 286 287 287 287 287 287 287 288 288 288 288 288 288
282 282 282 282 281 282 282 282 282 283 283 283 283 283 283 284 284 284 285 285 285 286 286 287 287 287 288 288 288 289 289 290 290 291 291 291 292 292 292 293 293 293 293 293 293 293 293 293 293 293 293 293 292 292 292 292 291 291 291 290 290 290 289 289 289 288 288 288 288 287 287 287 286 286 286 286 286 287 287 287 287 288 288 288 288 289
280 280 281 281 281 281 281 281 282 282 282 282 282 283 283 283 283 283 284 284 285 285 286 286 287 287 288 288 288 288 289 289 290 290 291 291 291 292 292 292 292 292 292 292 292 292 292 292 292 292 292 292 292 291 291 291 291 291 290 290 290 290 289 289 289 289 289 288 288 288 287 287 287 287 286 286 286 286 286 287 287 287 287 288 288 288
279 280 280 280 280 281 281 281 281 282 282 282 282 282 283 283 283 283 283 284 284 285 285 286 287 287 288 288 288 289 289 289 290 290 290 291 291 291 291 291 291 291 291 290 290 290 290 290 291 291 291 291 291 291 291 290 290 290 290 290 290 289 289 289 289 289 289 288 288 288 288 287 287 287 287 286 286 286 286 286 286 287 287 287 287 288
279 279 280 280 280 281 281 281 282 282 282 282 282 282 283 283 283 283 284 284 284 284 285 285 286 287 287 288 288 289 289 289 289 289 290 290 290 290 290 290 290 289 289 289 289 289 289 289 289 289 290 290 290 290 290 289 289 289 289 289 289 289 289 289 289 288 288 288 288 288 288 287 287 287 287 287 286 286 286 286 286 286 286 286 286 287
280 280 280 281 281 281 281 281 282 282 282 283 283 283 283 283 283 284 284 284 284 284 285 285 286 286 287 287 288 288 289 289 289 289 289 289 289 289 289 289 288 288 288 288 288 288 288 288 288 288 288 288 288 288 288 288 288 288 288 288 288 288 288 288 288 288 288 288 287 287 287 287 287 287 287 286 286 286 286 285 285 285 285 285 286 286
280 281 281 281 281 282 282 282 282 283 283 283 283 283 283 283 283 283 283 284 284 284 285 285 285 286 286 287 287 288 288 288 288 288 288 288 288 287 287 288 287 287 288 287 288 287 288 287 287 287 287 287 287 287 287 287 287 287 287 287 287 287 287 287 287 287 287 287 287 287 286 286 286 286 286 286 286 285 285 285 285 285 285 285 285 285
281 281 281 282 282 282 282 282 283 283 283 283 283 283 283 283 283 283 283 284 284 284 285 285 285 285 286 286 286 287 287 287 287 287 287 287 287 287 287 287 287 287 287 287 287 287 287 287 286 286 286 286 286 286 286 286 286 286 286 286 286 286 286 286 286 286 286 286 286 286 285 285 285 285 285 285 285 285 284 284 284 284 284 283 283 283
281 281 281 282 282 282 282 282 282 282 283 282 282 282 283 283 284 284 284 284 284 284 284 285 285 285 285 285 285 285 285 285 286 286 286 286 286 286 286 286 286 286 286 286 286 286 286 286 285 285 285 285 285 285 285 284 284 284 284 284 284 284 284 284 284 284 284 284 284 284 284 284 284 284 284 284 284 284 284 283 283 283 283 282 282 282
281 281 281 281 281 281 282 282 282 282 282 282 282 283 283 283 284 284 284 284 284 284 284 284 284 284 284 284 284 284 284 284 284 284 284 285 285 285 285 285 285 285 285 285 285 285 285 284 284 284 284 284 284 284 284 283 283 283 283 283 283 283 283 283 283 283 283 283 283 283 283 283 283 283 283 283 283 283 283 283 283 282 282 282 281 281
280 280 281 281 281 281 281 281 282 282 282 283 283 283 283 284 284 284 284 284 284 284 284 283 283 283 283 283 283 282 282 282 282 282 283 283 283 284 284 284 284 284 284 284 284 283 283 283 283 283 283 283 283 283 283 282 282 282 282 282 282 282 281 281 281 281 281 281 281 282 282 282 282 282 282 282 282 282 282 282 282 282 281 281 281 280
280 280 280 281 281 281 282 282 282 283 283 283 283 284 284 284 284 284 284 284 284 283 283 283 283 283 282 282 282 282 282 282 281 281 281 282 282 282 283 283 283 283 283 283 283 283 282 282 282 282 282 282 282 282 282 282 281 281 281 281 281 281 280 280 280 280 280 280 280 280 280 280 280 281 281 281 281 281 281 281 281 281 281 281 280 280
280 281 281 282 282 282 283 283 283 283 284 284 284 284 284 284 284 284 284 284 284 283 283 283 283 283 282 282 282 282 281 281 281 281 281 281 281 281 281 282 282 282 282 282 282 282 281 281 281 281 281 281 281 281 281 281 280 280 280 280 280 280 280 279 279 279 279 279 279 279 279 279 279 279 279 279 280 280 280 280 280 280 280 280 280 279
282 282 282 283 283 283 283 284 284 284 284 284 284 284 284 284 284 284 284 283 283 283 283 283 282 282 282 282 282 281 281 281 281 280 280 280 280 280 280 280 280 281 281 281 281 281 281 280 280 280 280 280 280 280 280 279 279 279 279 279 279 279 279 278 278 278 278 278 278 278 278 278 278 278 278 278 278 278 279 279 279 279 279 279 279 279
283 283 283 283 283 284 284 284 284 284 284 284 284 284 284 284 283 283 283 283 282 282 282 282 281 281 281 281 281 281 281 280 280 280 279 279 279 279 279 279 279 279 279 279 279 280 279 279 279 279 279 279 279 278 278 278 278 278 278 278 278 277 277 277 277 277 277 277 277 277 277 277 276 276 276 276 277 277 277 277 278 278 278 278 278 278
283 283 283 283 283 284 284 284 283 283 283 283 283 283 283 283 282 282 282 282 281 281 281 281 281 280 280 280 280 280 280 280 279 279 279 279 278 278 278 278 278 277 278 278 278 278 278 278 278 278 278 277 277 277 277 277 277 277 277 277 276 276 276 276 276 276 276 276 276 275 275 275 275 275 275 275 275 275 275 276 276 276 276 277 277 277
283 283 283 283 283 283 283 283 283 283 283 282 282 282 282 282 281 281 281 281 281 281 281 280 280 280 280 280 280 280 280 279 279 279 279 279 278 278 278 277 277 277 277 277 277 277 277 277 277 277 277 277 276 276 276 276 276 275 275 275 275 275 275 275 275 274 274 274 274 274 274 274 274 274 274 274 274 274 274 274 274 274 275 275 275 276
282 282 282 282 282 282 282 282 282 282 282 282 281 281 281 281 281 281 281 281 281 281 281 280 280 280 280 280 280 280 280 279 279 279 279 279 278 278 278 277 277 277 276 276 276 276 276 276 276 276 276 276 275 275 275 275 274 274 274 274 274 274 273 273 273 273 273 273 273 273 273 273 273 273 273 273 272 272 272 272 272 272 273 273 274 274
281 281 281 281 281 281 281 281 281 281 281 281 281 281 281 281 281 281 281 281 281 281 281 281 281 281 281 280 280 280 280 279 279 279 279 279 278 278 278 278 277 277 276 276 276 275 275 275 275 275 275 275 275 274 274 274 274 273 273 273 273 272 272 272 272 272 272 272 272 272 272 272 272 272 272 271 271 271 271 271 271 271 271 271 272 272
281 281 281 281 281 281 281 281 281 281 282 281 281 281 281 281 281 281 281 281 281 281 281 281 281 281 281 281 280 280 280 280 279 279 279 279 278 278 278 278 277 277 276 276 275 275 274 274 274 274 274 274 274 274 273 273 273 272 272 272 272 271 271 271 271 271 271 271 271 271 271 271 270 270 270 270 270 270 270 270 269 269 269 270 270 270
282 282 282 282 282 282 282 282 282 282 282 282 282 282 282 282 282 282 282 282 282 281 281 281 281 281 281 281 281 280 280 280 280 279 279 279 278 278 278 277 277 276 276 276 275 275 274 274 273 273 273 273 273 273 273 273 272 272 272 271 271 271 270 270 270 270 270 270 269 269 269 269 269 269 269 269 269 269 269 268 268 268 268 268 268 269
283 283 283 283 283 283 283 283 283 282 282 282 282 282 282 282 282 282 282 282 282 282 282 281 281 281 281 281 281 281 280 280 280 279 279 278 278 278 277 277 276 276 276 275 275 274 274 273 273 272 272 272 272 272 272 272 271 271 271 270 270 270 270 269 269 269 269 268 268 268 268 268 268 268 268 268 268 268 267 267 267 267 267 267 267 267
284 284 284 284 284 283 283 283 283 283 283 283 283 283 283 283 283 283 282 282 282 282 282 282 282 282 282 281 281 281 280 280 279 279 278 278 277 277 277 276 276 275 275 275 274 274 273 273 272 272 271 271 271 271 271 271 270 270 270 269 269 269 269 268 268 268 268 267 267 267 267 267 267 267 266 266 266 266 266 266 266 266 266 266 266 266
284 284 284 284 284 284 284 284 284 284 284 284 284 284 283 283 283 283 283 283 283 282 282 282 282 282 282 281 281 281 280 280 279 279 278 278 277 277 276 276 275 275 274 274 274 273 273 272 272 271 271 270 270 269 269 269 269 269 269 268 268 268 267 267 267 267 266 266 266 266 266 266 265 265 265 265 265 265 265 265 265 264 264 264 264 264
284 285 285 285 285 284 284 284 284 284 284 284 284 284 284 284 284 283 283 283 283 283 282 282 282 282 281 281 281 280 280 279 279 278 278 278 277 276 276 276 275 275 274 273 273 273 272 272 271 270 270 269 269 268 268 268 267 267 267 267 266 266 266 265 265 265 265 265 265 264 264 264 264 264 264 264 264 264 264 264 263 263 263 263 263 263
285 285 285 285 285 285 285 285 285 285 285 285 285 284 284 284 284 284 283 283 283 283 283 282 282 282 282 281 281 280 280 279 278 278 278 277 277 277 276 276 275 274 273 273 272 272 271 271 270 269 269 268 268 267 266 266 266 266 265 265 265 264 264 264 264 263 263 263 263 263 263 263 263 263 263 263 263 263 263 263 262 262 262 262 262 262
285 285 285 285 285 285 285 285 285 285 285 285 285 284 284 284 284 284 284 284 283 283 283 283 283 282 282 281 281 280 279 279 279 278 278 277 277 276 276 276 275 274 273 272 271 270 270 269 269 268 268 267 266 266 265 264 264 264 264 263 263 263 263 262 262 262 262 261 261 261 261 261 261 261 261 261 261 261 262 261 261 261 261 261 261 261
285 285 285 285 285 285 285 285 285 285 285 285 284 284 284 284 284 284 284 284 284 284 283 283 283 282 282 281 281 280 280 279 279 278 278 277 277 276 276 275 274 273 272 271 270 269 268 268 268 267 266 266 265 264 264 263 262 262 262 262 261 261 261 261 260 260 260 260 259 259 259 259 259 259 259 259 260 260 260 260 260 260 260 260 260 260
286 286 285 285 285 285 285 285 285 285 285 284 284 284 284 284 284 284 284 284 284 284 283 283 283 282 282 282 281 281 280 280 279 278 278 277 276 276 275 274 274 272 271 270 269 268 267 267 266 266 265 264 264 263 262 262 261 260 260 260 260 260 259 259 259 258 258 258 258 258 257 257 257 257 257 257 258 258 258 259 259 259 259 259 259 259
286 286 286 285 285 285 285 285 285 284 284 284 284 284 284 284 284 284 284 284 283 283 283 283 282 282 282 282 282 281 281 280 279 278 278 277 276 275 274 273 273 272 271 270 268 267 266 265 265 264 263 263 262 262 261 260 260 259 258 258 258 258 258 258 257 257 257 257 256 256 256 256 256 255 255 255 256 256 256 257 257 257 257 257 257 257
286 286 285 285 285 285 285 284 284 284 284 284 284 284 283 283 283 283 283 283 283 283 283 283 282 282 282 282 282 281 281 280 279 278 277 276 275 274 274 273 272 271 270 269 268 267 266 265 264 263 262 261 261 260 260 259 258 258 257 257 257 257 257 256 256 256 255 255 255 255 254 254 254 254 254 254 254 254 255 255 256 256 256 256 256 256
285 285 285 285 285 284 284 284 284 284 284 284 283 283 283 283 283 283 283 283 283 283 283 283 283 282 282 282 282 281 280 280 279 278 277 276 275 274 273 272 271 270 270 269 267 266 265 264 263 262 261 260 259 259 258 258 257 257 256 256 256 256 255 255 255 254 254 253 253 253 253 252 252 252 252 252 252 253 253 254 254 254 254 254 254 255
285 285 285 285 284 284 284 284 284 284 283 283 283 283 283 283 283 283 283 283 283 283 283 283 282 282 282 281 281 280 280 279 278 277 276 275 274 274 273 272 271 270 269 268 267 266 265 264 262 261 260 259 258 258 257 257 256 255 255 255 254 254 254 254 253 253 252 252 252 251 251 251 251 251 250 250 251 251 251 252 252 252 252 253 253 253
285 285 285 284 284 284 284 284 284 284 283 283 283 283 283 283 283 283 283 283 283 283 283 282 282 282 281 281 280 280 279 278 278 277 276 275 274 273 273 272 271 270 269 268 267 266 265 263 262 261 260 259 258 257 256 256 255 254 254 254 253 253 253 252 252 251 251 250 250 250 250 249 249 249 249 249 249 249 249 250 250 250 250 251 251 251
285 285 285 284 284 284 284 284 284 284 283 283 283 283 283 283 283 283 283 283 283 283 282 282 282 281 281 281 280 279 279 278 277 276 276 275 274 273 272 271 270 269 268 267 266 265 264 263 262 261 259 258 257 256 255 254 254 253 253 253 252 252 251 251 250 250 249 249 248 248 248 248 247 247 247 247 247 247 247 248 248 248 248 249 249 250
285 285 285 285 285 284 284 284 284 284 284 284 284 284 284 283 283 283 283 283 282 282 282 282 281 281 281 280 280 279 278 278 277 276 275 275 274 273 272 271 270 269 268 267 266 265 264 263 261 260 259 257 256 255 254 253 253 252 252 252 251 251 250 250 249 249 248 248 247 247 246 246 246 246 246 245 245 245 246 246 246 246 247 247 247 248
285 285 285 285 285 285 284 284 284 284 284 284 284 284 283 283 283 283 283 282 282 282 282 282 281 281 280 280 279 279 278 277 276 276 275 275 274 273 272 270 269 268 267 266 265 264 263 262 261 259 258 257 255 254 253 252 252 251 251 251 250 250 249 249 248 248 247 246 246 245 245 245 244 244 244 244 244 244 244 244 244 245 245 245 245 246
286 285 285 285 285 285 285 285 284 284 284 284 284 283 283 283 283 283 282 282 282 282 282 282 281 281 280 280 279 278 277 277 276 275 275 274 273 273 271 270 269 267 266 265 264 263 262 261 260 259 257 256 255 253 252 252 251 251 250 250 250 249 248 248 247 246 245 245 244 244 243 243 243 242 242 242 242 242 242 242 242 242 242 243 243 244
286 286 285 285 285 285 285 285 284 284 284 284 283 283 283 283 283 283 283 282 282 282 282 281 281 280 280 279 279 278 277 276 275 275 274 273 273 272 271 269 268 267 266 265 264 263 262 261 260 258 257 255 254 253 252 251 250 250 250 249 249 248 247 246 246 245 244 243 242 242 241 241 241 241 240 240 240 240 240 240 240 240 240 240 241 241
286 286 285 285 285 285 285 284 284 284 284 284 283 283 283 283 283 283 283 282 282 282 281 281 281 280 280 279 279 278 277 276 275 274 273 272 272 271 270 269 268 267 266 265 264 263 262 260 259 257 256 255 253 252 251 250 250 249 249 249 248 247 246 245 244 243 242 241 241 240 239 239 239 239 238 238 238 238 238 238 237 237 237 238 238 239
286 286 285 285 285 285 285 284 284 284 284 284 284 284 283 283 283 283 282 282 282 281 281 281 281 280 280 279 279 278 277 276 275 274 273 272 271 270 269 268 268 267 265 264 264 263 262 260 258 257 255 254 252 251 250 250 249 249 248 248 247 246 245 244 243 241 240 240 239 238 238 237 237 237 237 236 236 236 235 235 235 235 235 236 236 237
286 286 285 285 285 285 285 285 285 284 284 284 284 284 283 283 283 283 282 282 282 281 281 281 281 280 280 279 278 277 276 275 274 273 272 271 270 269 268 268 267 266 265 264 263 262 261 259 258 256 254 253 252 251 250 249 248 248 247 246 245 244 243 242 241 240 239 238 237 237 236 236 236 235 235 235 234 234 233 233 233 233 233 234 234 235
286 286 286 285 285 285 285 285 285 285 284 284 284 284 283 283 283 283 282 282 282 282 282 281 281 280 279 278 278 277 276 275 274 273 271 270 269 268 268 267 266 265 264 263 262 261 260 258 256 255 253 252 251 250 249 248 247 246 245 244 243 242 241 240 239 238 238 237 236 236 235 235 235 234 234 233 233 232 232 231 231 231 231 232 233 234
286 286 286 286 286 286 285 285 285 285 285 284 284 284 284 283 283 283 283 283 282 282 282 281 280 280 279 278 278 277 276 275 274 272 271 270 269 268 267 266 265 264 263 262 261 260 258 257 255 254 252 251 250 249 248 246 245 244 243 242 241 239 239 238 237 237 236 236 235 235 234 234 233 233 233 232 231 231 230 229 229 229 229 230 231 232
287 286 286 286 286 286 286 286 285 285 285 284 284 284 284 284 283 283 283 283 282 282 281 281 280 280 279 278 277 277 276 274 273 272 271 270 268 267 266 265 264 263 262 261 260 258 257 255 254 252 251 250 249 247 246 245 243 242 241 240 239 238 237 236 236 235 235 234 234 233 233 233 232 232 232 231 230 229 228 228 227 227 228 228 230 231
287 287 287 287 287 286 286 286 286 285 285 285 285 284 284 284 283 283 283 282 282 282 281 281 280 279 279 278 277 276 275 274 273 272 271 269 268 267 266 265 264 262 261 260 258 257 255 254 252 251 250 248 247 245 244 243 241 240 239 238 237 236 235 235 234 234 234 233 233 232 232 231 231 230 230 229 229 228 227 226 226 226 226 227 229 230
288 288 287 287 287 287 287 286 286 285 285 285 285 284 284 284 283 283 282 282 282 281 281 280 280 279 279 278 277 276 275 274 273 271 270 269 268 267 265 264 263 261 260 258 257 255 253 252 251 249 248 246 245 243 242 240 239 238 237 236 235 234 234 233 233 233 232 232 231 231 230 230 229 229 228 227 227 226 226 225 225 225 225 227 228 230
Height
10529 10528 10527 10525 10524 10523 10522 10520 10520 10519 10517 10516 10515 10513 10510 10508 10507 10505 10505 10505 10505 10504 10504 10503 10503 10503 10503 10502 10502 10502 10501 10500 10499 10498 10498 10497 10497 10496 10495 10495 10494 10493 10493 10492 10492 10491 10490 10490 10490 10490 10489 10489 10489 10489 10489 10490 10490 10490 10489 10489 10488 10488 10488 10488 10488 10487 10487 10487 10488 10488 10487 10487 10487 10487 10486 10486 10486 10487 10487 10487 10486 10485 10485 10485 10484 10483
10520 10520 10518 10518 10517 10515 10514 10513 10513 10512 10512 10510 10509 10507 10505 10503 10501 10500 10498 10498 10498 10498 10498 10498 10497 10496 10495 10495 10494 10494 10493 10492 10492 10491 10490 10490 10489 10488 10488 10487 10487 10486 10485 10485 10484 10483 10483 10482 10482 10482 10482 10482 10482 10482 10483 10483 10483 10483 10484 10484 10484 10483 10483 10483 10483 10483 10483 10483 10483 10483 10483 10482 10482 10482 10482 10482 10482 10482 10482 10482 10482 10481 10480 10480 10480 10478
10512 10512 10510 10510 10510 10509 10508 10507 10506 10506 10506 10505 10503 10502 10500 10498 10496 10494 10493 10492 10492 10492 10492 10492 10491 10490 10489 10488 10488 10487 10487 10485 10484 10483 10483 10482 10482 10481 10481 10480 10480 10479 10478 10477 10477 10477 10476 10476 10475 10475 10475 10476 10476 10476 10477 10477 10477 10478 10478 10478 10478 10478 10477 10478 10478 10478 10478 10478 10478 10478 10478 10478 10478 10478 10477 10477 10477 10477 10477 10477 10477 10477 10477 10476 10475 10475
10505 10505 10503 10503 10503 10503 10502 10501 10500 10500 10499 10499 10498 10497 10495 10493 10491 10488 10487 10485 10485 10484 10484 10485 10485 10484 10483 10482 10482 10481 10480 10478 10478 10477 10475 10475 10475 10474 10473 10473 10473 10472 10472 10471 10470 10470 10469 10469 10469 10469 10468 10469 10469 10470 10470 10470 10471 10472 10472 10472 10472 10472 10472 10472 10472 10473 10473 10473 10473 10473 10474 10473 10473 10473 10473 10473 10473 10473 10473 10473 10473 10473 10473 10472 10472 10471
10498 10498 10497 10497 10497 10495 10495 10494 10493 10493 10492 10492 10492 10491 10490 10488 10487 10484 10482 10480 10478 10477 10476 10476 10477 10477 10477 10476 10475 10475 10473 10472 10471 10470 10468 10468 10467 10467 10467 10467 10466 10465 10465 10464 10463 10463 10463 10463 10463 10462 10462 10462 10463 10463 10463 10464 10465 10465 10465 10466 10467 10467 10467 10467 10467 10467 10467 10468 10468 10468 10469 10469 10469 10469 10469 10469 10469 10469 10469 10469 10469 10469 10468 10468 10468 10467
10491 10490 10490 10490 10489 10488 10487 10487 10487 10486 10485 10485 10484 10484 10483 10483 10482 10480 10477 10475 10472 10470 10468 10468 10468 10468 10468 10468 10468 10467 10467 10465 10464 10463 10462 10461 10460 10460 10460 10459 10459 10458 10458 10458 10457 10457 10457 10457 10457 10456 10456 10456 10456 10457 10457 10457 10458 10458 10459 10460 10460 10460 10460 10460 10461 10462 10462 10462 10463 10463 10463 10464 10465 10465 10465 10465 10465 10465 10465 10465 10465 10465 10465 10465 10464 10463
10483 10483 10482 10482 10481 10480 10480 10480 10478 10478 10477 10477 10476 10476 10476 10475 10475 10473 10472 10470 10468 10465 10463 10460 10459 10459 10459 10459 10459 10460 10459 10458 10457 10456 10455 10453 10453 10452 10452 10452 10452 10452 10452 10451 10451 10451 10450 10450 10450 10450 10450 10450 10450 10450 10450 10451 10451 10452 10452 10453 10453 10453 10454 10454 10455 10455 10455 10456 10457 10457 10458 10458 10459 10459 10460 10460 10460 10460 10460 10460 10461 10461 10461 10460 10460 10459
10476 10475 10474 10474 10473 10472 10472 10471 10470 10470 10469 10468 10468 10467 10467 10467 10466 10465 10465 10464 10462 10460 10458 10455 10453 10451 10450 10449 10450 10450 10450 10450 10450 10449 10448 10447 10445 10445 10444 10444 10444 10445 10445 10445 10445 10445 10445 10445 10444 10444 10444 10444 10443 10443 10444 10444 10445 10445 10445 10446 10446 10447 10447 10448 10448 10448 10449 10450 10450 10451 10452 10452 10453 10453 10453 10454 10455 10455 10455 10456 10456 10456 10456 10456 10456 10455
10468 10467 10465 10465 10465 10464 10463 10462 10461 10460 10460 10460 10459 10458 10458 10457 10457 10456 10456 10456 10455 10453 10452 10451 10448 10445 10443 10441 10440 10440 10441 10442 10442 10441 10440 10439 10438 10437 10437 10437 10437 10437 10438 10438 10438 10438 10438 10438 10438 10438 10438 10438 10438 10438 10438 10438 10438 10438 10438 10439 10440 10440 10440 10441 10442 10442 10443 10443 10444 10445 10445 10446 10447 10447 10448 10448 10448 10449 10450 10450 10451 10451 10452 10452 10452 10452
10460 10458 10457 10456 10455 10455 10455 10453 10451 10450 10450 10450 10450 10449 10449 10448 10448 10447 10447 10446 10446 10445 10445 10444 10443 10440 10438 10435 10433 10432 10432 10432 10432 10432 10433 10432 10431 10430 10429 10429 10429 10429 10430 10430 10431 10431 10432 10432 10432 10432 10432 10432 10432 10432 10432 10432 10432 10432 10432 10432 10433 10433 10433 10434 10435 10435 10437 10437 10438 10438 10439 10440 10440 10441 10442 10442 10443 10443 10444 10445 10445 10446 10447 10447 10447 10447
10450 10450 10449 10448 10446 10445 10445 10444 10442 10441 10441 10440 10440 10438 10438 10438 10438 10438 10438 10437 10437 10437 10437 10435 10435 10434 10433 10430 10428 10425 10424 10423 10422 10422 10423 10423 10423 10423 10422 10422 10421 10421 10422 10423 10423 10424 10424 10424 10425 10425 10425 10425 10425 10425 10425 10425 10425 10425 10426 10426 10427 10427 10427 10428 10428 10429 10430 10430 10432 10432 10433 10433 10434 10435 10435 10436 10437 10437 10438 10438 10440 10440 10441 10442 10442 10443
10442 10440 10440 10438 10437 10436 10435 10434 10433 10432 10432 10431 10430 10428 10427 10427 10428 10429 10429 10428 10427 10427 10427 10427 10426 10426 10426 10425 10422 10420 10418 10416 10414 10413 10413 10413 10414 10415 10415 10414 10413 10413 10413 10415 10415 10416 10417 10417 10417 10417 10418 10418 10418 10418 10419 10419 10419 10420 10420 10420 10420 10421 10421 10422 10422 10422 10423 10424 10425 10425 10427 10427 10428 10428 10429 10430 10430 10431 10432 10433 10433 10435 10435 10437 10437 10438
10432 10432 10431 10430 10428 10427 10425 10425 10423 10422 10422 10421 10420 10419 10417 10417 10418 10419 10419 10418 10418 10418 10418 10418 10417 10417 10417 10417 10416 10414 10412 10410 10408 10407 10405 10405 10404 10405 10406 10406 10406 10406 10406 10407 10407 10408 10408 10408 10408 10409 10410 10410 10411 10411 10412 10412 10412 10413 10413 10413 10414 10414 10415 10415 10415 10416 10417 10417 10418 10419 10420 10421 10422 10422 10423 10423 10424 10425 10425 10427 10427 10428 10430 10431 10432 10433
10423 10423 10422 10421 10419 10418 10417 10415 10414 10413 10412 10410 10410 10410 10408 10408 10408 10408 10408 10408 10407 10408 10409 10410 10408 10407 10407 10408 10407 10407 10406 10405 10403 10402 10400 10398 10396 10396 10397 10397 10397 10398 10398 10399 10398 10399 10400 10401 10401 10400 10402 10402 10403 10403 10404 10404 10405 10405 10406 10407 10407 10408 10408 10408 10409 10410 10410 10411 10412 10413 10413 10415 10415 10416 10417 10417 10418 10418 10419 10420 10421 10422 10423 10425 10426 10427
10415 10414 10413 10412 10410 10408 10407 10407 10405 10403 10402 10401 10400 10400 10399 10398 10398 10398 10398 10398 10397 10397 10399 10399 10398 10397 10398 10398 10398 10397 10397 10397 10396 10395 10394 10392 10390 10389 10388 10388 10388 10388 10390 10391 10390 10390 10391 10392 10393 10392 10393 10393 10394 10395 10395 10396 10397 10397 10398 10398 10400 10400 10401 10402 10402 10403 10403 10404 10405 10406 10407 10408 10408 10410 10410 10411 10412 10412 10413 10413 10414 10415 10417 10418 10420 10422
10406 10405 10405 10402 10400 10399 10398 10397 10396 10394 10392 10390 10390 10390 10389 10388 10387 10387 10387 10387 10386 10386 10387 10388 10387 10387 10387 10387 10387 10388 10387 10387 10386 10387 10387 10387 10385 10382 10382 10380 10378 10378 10380 10382 10382 10382 10382 10383 10384 10384 10385 10385 10385 10386 10387 10387 10388 10389 10390 10390 10392 10392 10393 10394 10395 10395 10396 10397 10398 10399 10400 10401 10402 10403 10404 10405 10405 10406 10407 10407 10408 10409 10410 10412 10413 10415
10397 10397 10395 10393 10392 10389 10388 10387 10386 10384 10382 10381 10380 10379 10378 10377 10377 10375 10375 10375 10375 10375 10375 10376 10377 10377 10375 10375 10375 10376 10377 10377 10375 10375 10377 10379 10378 10376 10375 10374 10371 10368 10369 10371 10372 10372 10372 10373 10374 10375 10376 10377 10377 10377 10378 10378 10379 10380 10381 10382 10383 10384 10385 10386 10387 10388 10388 10390 10390 10392 10393 10394 10395 10397 10397 10398 10399 10400 10400 10401 10402 10402 10403 10405 10406 10408
10387 10387 10386 10384 10382 10380 10378 10377 10375 10373 10372 10370 10369 10368 10367 10367 10366 10365 10365 10364 10363 10363 10364 10364 10365 10366 10366 10365 10363 10363 10364 10366 10365 10364 10365 10368 10369 10368 10368 10367 10365 10362 10360 10361 10362 10362 10362 10363 10364 10365 10367 10367 10368 10368 10368 10369 10370 10371 10372 10373 10374 10375 10376 10377 10378 10380 10380 10382 10383 10384 10385 10387 10388 10390 10391 10392 10392 10393 10394 10395 10395 10396 10397 10398 10399 10400
10378 10377 10376 10375 10372 10370 10368 10367 10366 10364 10362 10360 10358 10358 10357 10355 10354 10354 10355 10353 10352 10352 10353 10353 10353 10354 10355 10355 10354 10352 10353 10355 10355 10353 10353 10356 10358 10359 10359 10359 10358 10355 10353 10352 10352 10352 10352 10353 10353 10355 10357 10358 10358 10359 10359 10360 10361 10362 10363 10364 10365 10366 10367 10368 10370 10371 10372 10373 10375 10376 10377 10378 10380 10382 10383 10385 10386 10387 10388 10388 10389 10390 10390 10392 10392 10393
10368 10367 10366 10365 10363 10362 10359 10357 10355 10355 10353 10350 10348 10348 10348 10345 10344 10343 10343 10342 10342 10342 10342 10343 10343 10343 10343 10344 10344 10343 10342 10344 10344 10342 10341 10343 10347 10348 10348 10349 10348 10347 10345 10344 10344 10343 10343 10343 10343 10344 10347 10348 10349 10350 10350 10351 10352 10352 10353 10355 10355 10357 10358 10360 10361 10362 10363 10365 10367 10368 10369 10371 10372 10374 10376 10377 10378 10380 10382 10382 10383 10383 10384 10385 10386 10387
10360 10358 10355 10355 10355 10353 10350 10347 10345 10345 10343 10341 10339 10337 10336 10334 10333 10333 10332 10330 10330 10331 10331 10331 10331 10332 10332 10333 10333 10332 10331 10333 10333 10331 10328 10330 10334 10337 10337 10338 10338 10337 10335 10335 10336 10335 10334 10333 10332 10333 10335 10337 10339 10340 10340 10341 10342 10343 10344 10345 10346 10347 10349 10351 10352 10353 10355 10356 10358 10360 10362 10363 10365 10366 10368 10369 10371 10372 10374 10376 10377 10377 10377 10378 10379 10380
10352 10349 10347 10345 10345 10345 10342 10338 10335 10334 10333 10332 10329 10327 10324 10323 10323 10322 10320 10318 10319 10320 10319 10318 10318 10320 10321 10322 10322 10320 10320 10321 10321 10319 10317 10318 10321 10323 10324 10326 10327 10325 10323 10324 10326 10327 10326 10323 10322 10322 10323 10326 10328 10329 10330 10332 10332 10333 10334 10335 10336 10337 10338 10341 10343 10345 10346 10347 10349 10351 10353 10355 10356 10358 10360 10361 10363 10365 10367 10368 10370 10370 10371 10372 10373 10373
10342 10340 10338 10337 10335 10335 10332 10330 10327 10324 10323 10321 10319 10316 10313 10312 10311 10310 10308 10307 10307 10307 10307 10307 10307 10308 10309 10309 10309 10308 10308 10308 10308 10307 10307 10307 10307 10308 10311 10314 10315 10313 10310 10311 10314 10317 10317 10314 10312 10312 10313 10315 10316 10317 10319 10321 10322 10323 10323 10325 10325 10327 10328 10330 10333 10335 10337 10338 10340 10342 10343 10346 10348 10349 10352 10353 10355 10357 10359 10361 10362 10363 10364 10365 10366 10367
10331 10330 10328 10327 10325 10323 10322 10319 10317 10314 10312 10310 10308 10305 10302 10300 10300 10298 10297 10297 10296 10295 10295 10294 10295 10295 10295 10295 10296 10297 10297 10295 10295 10295 10296 10294 10293 10295 10298 10302 10302 10300 10297 10297 10301 10305 10306 10304 10302 10302 10302 10303 10305 10305 10307 10309 10311 10312 10312 10313 10314 10315 10317 10319 10322 10325 10328 10329 10330 10333 10335 10337 10338 10340 10343 10345 10346 10348 10350 10352 10354 10355 10356 10357 10359 10361
10320 10319 10317 10315 10313 10312 10310 10308 10305 10303 10300 10298 10296 10293 10290 10288 10287 10287 10286 10285 10284 10283 10282 10282 10282 10282 10282 10283 10284 10285 10284 10282 10282 10283 10284 10282 10280 10280 10284 10288 10289 10288 10285 10284 10286 10290 10293 10293 10291 10291 10292 10293 10293 10294 10295 10297 10299 10300 10301 10302 10302 10304 10306 10308 10311 10314 10317 10319 10321 10323 10325 10327 10329 10331 10333 10336 10338 10340 10342 10344 10345 10347 10348 10350 10352 10354
10308 10307 10306 10304 10302 10300 10298 10295 10293 10291 10288 10286 10283 10281 10278 10277 10275 10274 10273 10272 10270 10270 10270 10270 10268 10268 10268 10271 10273 10273 10270 10269 10270 10271 10271 10269 10267 10267 10269 10272 10275 10276 10275 10272 10272 10275 10280 10280 10279 10279 10282 10283 10283 10283 10283 10285 10287 10288 10289 10290 10290 10292 10294 10297 10300 10302 10305 10308 10311 10313 10315 10317 10319 10322 10325 10327 10328 10331 10333 10335 10337 10338 10340 10342 10344 10347
10297 10295 10294 10292 10290 10287 10285 10283 10280 10278 10276 10273 10270 10268 10265 10263 10263 10262 10260 10257 10255 10256 10258 10257 10255 10253 10255 10258 10260 10259 10257 10257 10257 10257 10255 10254 10255 10255 10255 10256 10260 10264 10264 10260 10257 10259 10264 10267 10267 10267 10268 10272 10273 10273 10272 10273 10275 10275 10276 10277 10278 10279 10282 10285 10288 10292 10294 10297 10300 10302 10304 10307 10309 10312 10315 10317 10320 10322 10324 10326 10328 10330 10331 10333 10336 10338
10285 10283 10282 10279 10277 10274 10272 10270 10267 10265 10262 10260 10257 10253 10251 10250 10249 10248 10245 10242 10241 10242 10245 10244 10242 10240 10242 10245 10245 10244 10243 10244 10243 10242 10239 10239 10240 10240 10240 10241 10245 10251 10253 10248 10244 10244 10248 10252 10253 10254 10255 10258 10262 10262 10261 10261 10262 10263 10263 10264 10265 10267 10269 10272 10276 10280 10283 10285 10288 10291 10293 10296 10298 10302 10304 10308 10310 10313 10315 10317 10320 10322 10323 10325 10328 10331
10273 10271 10269 10267 10264 10262 10259 10257 10254 10252 10248 10247 10243 10240 10237 10235 10234 10233 10230 10228 10227 10228 10229 10229 10228 10227 10229 10231 10232 10230 10230 10230 10229 10227 10225 10224 10224 10225 10225 10227 10233 10237 10239 10235 10232 10232 10234 10237 10238 10240 10242 10245 10248 10249 10250 10249 10250 10251 10250 10250 10252 10253 10257 10260 10263 10267 10271 10274 10276 10278 10282 10285 10288 10291 10294 10298 10301 10303 10305 10307 10310 10313 10317 10317 10319 10323
10262 10260 10257 10255 10252 10249 10247 10245 10242 10238 10235 10233 10230 10226 10222 10220 10218 10217 10215 10214 10213 10213 10213 10213 10213 10213 10215 10217 10217 10217 10216 10215 10214 10213 10213 10212 10210 10208 10209 10214 10220 10223 10223 10221 10220 10220 10220 10220 10222 10226 10230 10232 10233 10234 10236 10237 10238 10238 10237 10237 10238 10240 10243 10247 10251 10255 10258 10262 10265 10267 10270 10274 10277 10281 10285 10288 10291 10293 10295 10297 10300 10305 10308 10309 10311 10314
10250 10247 10245 10242 10238 10236 10234 10232 10229 10226 10222 10220 10216 10212 10208 10205 10203 10201 10200 10199 10198 10198 10198 10198 10198 10199 10200 10201 10202 10202 10201 10200 10200 10200 10200 10199 10197 10195 10195 10200 10205 10208 10207 10206 10207 10208 10207 10205 10207 10212 10217 10218 10218 10219 10222 10225 10226 10225 10224 10223 10223 10226 10230 10234 10238 10243 10247 10250 10253 10257 10260 10263 10266 10270 10274 10278 10281 10283 10285 10287 10290 10295 10299 10300 10302 10306
10238 10236 10233 10230 10227 10224 10222 10218 10215 10212 10209 10206 10202 10199 10195 10192 10190 10187 10186 10185 10185 10184 10184 10184 10184 10184 10184 10185 10187 10188 10188 10187 10187 10187 10187 10186 10184 10183 10183 10187 10190 10192 10190 10190 10193 10195 10195 10193 10194 10198 10202 10204 10204 10205 10208 10211 10213 10212 10211 10210 10210 10212 10216 10221 10226 10230 10234 10238 10241 10245 10248 10252 10255 10259 10263 10268 10271 10273 10275 10276 10280 10285 10290 10291 10293 10297
10226 10223 10221 10217 10214 10212 10208 10205 10202 10199 10197 10193 10189 10186 10183 10180 10177 10175 10173 10172 10171 10171 10170 10170 10170 10170 10170 10170 10172 10173 10174 10175 10174 10173 10173 10173 10172 10171 10171 10173 10175 10176 10175 10175 10177 10180 10182 10182 10182 10185 10188 10190 10190 10192 10194 10197 10198 10198 10198 10197 10197 10199 10203 10208 10214 10218 10222 10226 10229 10233 10237 10241 10245 10248 10253 10257 10260 10262 10265 10266 10270 10275 10280 10282 10284 10288
10213 10211 10208 10205 10202 10199 10196 10192 10189 10187 10183 10180 10177 10173 10170 10168 10165 10163 10162 10160 10158 10158 10157 10157 10157 10157 10157 10157 10158 10159 10161 10161 10161 10160 10160 10160 10159 10158 10158 10160 10161 10161 10161 10162 10163 10165 10167 10169 10171 10173 10175 10176 10178 10179 10181 10183 10184 10185 10185 10185 10185 10187 10190 10197 10202 10207 10210 10214 10218 10222 10225 10230 10234 10238 10242 10245 10249 10252 10252 10256 10261 10266 10270 10272 10275 10279
10202 10199 10196 10193 10190 10187 10184 10180 10177 10173 10171 10168 10165 10162 10158 10157 10154 10152 10150 10148 10147 10146 10145 10145 10145 10145 10145 10146 10147 10147 10148 10147 10147 10147 10147 10147 10145 10145 10146 10147 10147 10148 10148 10148 10150 10152 10154 10156 10158 10161 10163 10164 10165 10167 10168 10169 10170 10172 10172 10172 10173 10175 10179 10185 10191 10196 10200 10203 10207 10210 10214 10218 10223 10227 10231 10235 10238 10240 10244 10249 10253 10257 10261 10263 10266 10270
10190 10188 10184 10180 10177 10175 10172 10168 10165 10162 10159 10157 10153 10150 10147 10145 10143 10141 10139 10137 10136 10135 10133 10133 10133 10133 10134 10135 10136 10136 10135 10135 10134 10133 10133 10132 10132 10133 10133 10134 10135 10136 10136 10136 10137 10140 10142 10143 10145 10148 10151 10153 10154 10155 10157 10157 10158 10159 10160 10160 10162 10165 10169 10175 10180 10185 10188 10192 10196 10199 10203 10207 10212 10216 10220 10223 10227 10230 10235 10237 10242 10248 10251 10253 10257 10262
10179 10176 10172 10168 10165 10163 10160 10157 10153 10150 10148 10145 10142 10139 10136 10134 10132 10130 10128 10127 10125 10124 10123 10122 10122 10122 10123 10124 10125 10125 10124 10123 10122 10121 10120 10119 10120 10121 10122 10123 10123 10125 10125 10125 10125 10128 10130 10132 10134 10137 10140 10142 10143 10145 10146 10147 10147 10147 10147 10149 10152 10155 10160 10164 10169 10174 10178 10182 10185 10188 10192 10197 10201 10205 10209 10213 10217 10220 10225 10231 10236 10239 10240 10243 10249 10255
10167 10163 10160 10157 10154 10151 10148 10145 10142 10138 10136 10133 10130 10128 10125 10123 10122 10120 10118 10117 10115 10114 10113 10112 10112 10112 10112 10113 10113 10113 10113 10112 10111 10110 10108 10108 10108 10110 10111 10112 10113 10114 10114 10114 10115 10117 10120 10122 10124 10126 10128 10131 10133 10135 10135 10135 10135 10135 10135 10138 10142 10146 10150 10154 10158 10163 10167 10171 10175 10178 10182 10186 10190 10194 10198 10203 10207 10210 10214 10220 10224 10227 10231 10237 10242 10247
10155 10152 10148 10145 10142 10139 10136 10133 10130 10127 10125 10122 10120 10117 10115 10113 10112 10110 10108 10107 10105 10103 10102 10102 10101 10101 10102 10102 10102 10103 10102 10102 10100 10099 10098 10097 10098 10099 10101 10102 10102 10103 10103 10103 10104 10106 10108 10112 10113 10116 10118 10120 10122 10123 10125 10125 10125 10125 10125 10129 10133 10137 10140 10144 10149 10153 10157 10161 10165 10168 10172 10176 10180 10184 10188 10192 10196 10200 10203 10207 10213 10218 10223 10229 10234 10239
10143 10140 10137 10133 10130 10127 10124 10122 10119 10117 10114 10112 10110 10107 10105 10103 10101 10099 10098 10097 10095 10093 10092 10092 10091 10091 10092 10092 10092 10092 10092 10092 10090 10089 10088 10087 10088 10089 10090 10092 10093 10093 10093 10094 10095 10096 10098 10101 10103 10106 10109 10111 10112 10113 10115 10115 10115 10115 10117 10120 10123 10127 10131 10137 10141 10145 10148 10152 10156 10160 10162 10166 10170 10173 10178 10182 10186 10190 10193 10198 10203 10210 10215 10221 10226 10231
10131 10128 10125 10122 10118 10116 10113 10111 10108 10107 10104 10102 10100 10097 10095 10093 10091 10089 10088 10087 10085 10084 10083 10082 10082 10082 10082 10082 10083 10083 10082 10082 10081 10080 10078 10078 10078 10079 10080 10082 10083 10083 10084 10085 10085 10087 10089 10092 10094 10097 10099 10101 10102 10103 10105 10106 10107 10107 10109 10112 10114 10118 10124 10130 10134 10137 10140 10143 10147 10150 10153 10157 10160 10164 10168 10172 10176 10180 10184 10189 10196 10203 10208 10213 10217 10221
10120 10117 10114 10111 10108 10105 10103 10100 10098 10096 10094 10092 10090 10088 10085 10083 10082 10080 10078 10077 10076 10075 10073 10073 10072 10072 10072 10073 10073 10073 10073 10072 10072 10071 10070 10070 10070 10070 10071 10072 10073 10074 10075 10075 10077 10078 10081 10083 10085 10088 10090 10092 10093 10095 10096 10097 10098 10099 10101 10103 10107 10113 10118 10123 10126 10129 10132 10135 10138 10142 10145 10148 10151 10155 10159 10163 10167 10172 10177 10183 10190 10196 10200 10205 10208 10212
10108 10106 10103 10101 10098 10095 10093 10091 10088 10086 10084 10082 10080 10078 10076 10074 10073 10072 10070 10069 10068 10066 10065 10064 10064 10064 10064 10064 10064 10064 10064 10063 10063 10063 10062 10062 10061 10061 10062 10063 10064 10065 10066 10067 10068 10070 10073 10075 10077 10079 10081 10083 10085 10086 10087 10088 10090 10092 10093 10097 10102 10107 10111 10114 10118 10122 10125 10127 10130 10133 10136 10138 10142 10146 10150 10155 10159 10164 10170 10177 10183 10188 10192 10196 10200 10204
10098 10096 10093 10091 10088 10086 10084 10082 10079 10077 10075 10073 10071 10068 10067 10065 10064 10063 10062 10060 10058 10057 10056 10055 10055 10056 10056 10056 10055 10055 10055 10055 10054 10054 10053 10053 10053 10053 10053 10054 10055 10057 10058 10059 10061 10063 10065 10067 10069 10071 10073 10075 10076 10078 10079 10081 10082 10084 10087 10091 10095 10100 10103 10106 10110 10114 10117 10118 10122 10125 10127 10130 10134 10138 10143 10148 10152 10157 10163 10169 10175 10179 10184 10188 10192 10197
10088 10086 10083 10081 10079 10077 10075 10072 10070 10068 10066 10064 10062 10060 10058 10057 10055 10054 10053 10052 10050 10049 10048 10048 10048 10048 10047 10047 10047 10047 10046 10046 10046 10046 10046 10045 10045 10045 10046 10047 10048 10049 10050 10052 10053 10055 10057 10059 10061 10063 10065 10067 10068 10070 10072 10073 10075 10078 10081 10085 10090 10094 10097 10099 10102 10105 10107 10110 10113 10117 10119 10122 10127 10131 10135 10140 10145 10150 10155 10161 10166 10172 10176 10180 10184 10189
10079 10077 10074 10072 10070 10068 10066 10063 10062 10060 10058 10055 10053 10052 10050 10048 10047 10046 10045 10043 10042 10041 10040 10040 10040 10040 10039 10039 10039 10039 10038 10038 10038 10038 10038 10038 10038 10038 10039 10040 10040 10042 10043 10045 10047 10048 10050 10052 10053 10055 10057 10059 10061 10062 10065 10067 10069 10072 10075 10079 10083 10088 10090 10092 10094 10097 10100 10103 10105 10108 10112 10115 10119 10123 10127 10132 10137 10142 10148 10153 10159 10164 10168 10172 10177 10182
10070 10068 10065 10063 10062 10059 10057 10055 10053 10052 10050 10048 10045 10043 10042 10041 10039 10038 10037 10035 10035 10033 10033 10033 10033 10032 10032 10032 10032 10031 10031 10030 10030 10030 10030 10030 10031 10032 10032 10033 10034 10035 10037 10038 10040 10042 10043 10045 10047 10048 10051 10052 10054 10056 10058 10060 10063 10066 10069 10072 10077 10080 10082 10084 10087 10089 10093 10096 10098 10102 10105 10109 10113 10117 10120 10125 10131 10137 10142 10147 10152 10157 10160 10165 10170 10174
10062 10059 10057 10055 10053 10051 10049 10047 10045 10043 10042 10040 10038 10036 10035 10033 10032 10031 10029 10028 10027 10027 10026 10025 10025 10025 10024 10024 10024 10024 10023 10023 10023 10023 10023 10023 10024 10025 10025 10027 10027 10028 10030 10032 10033 10035 10036 10038 10040 10042 10044 10046 10048 10050 10052 10055 10057 10060 10062 10065 10068 10072 10074 10077 10079 10082 10086 10089 10092 10095 10098 10102 10105 10110 10114 10120 10125 10130 10135 10140 10145 10150 10153 10158 10163 10167
10053 10051 10049 10047 10045 10043 10041 10039 10037 10035 10033 10032 10030 10028 10027 10027 10025 10024 10023 10022 10021 10020 10019 10018 10018 10017 10017 10017 10017 10017 10017 10017 10017 10017 10017 10017 10018 10018 10019 10020 10021 10023 10025 10027 10028 10030 10030 10032 10033 10035 10037 10040 10042 10043 10045 10048 10051 10053 10056 10058 10062 10065 10068 10070 10073 10075 10079 10082 10086 10089 10092 10096 10100 10104 10109 10114 10118 10123 10128 10133 10138 10142 10147 10152 10157 10160
10045 10043 10042 10040 10038 10036 10033 10032 10030 10028 10027 10025 10023 10022 10020 10019 10018 10017 10016 10015 10014 10013 10012 10012 10011 10010 10010 10010 10010 10010 10010 10010 10010 10010 10010 10011 10012 10012 10013 10014 10015 10017 10018 10021 10023 10024 10025 10026 10027 10028 10031 10033 10035 10038 10040 10042 10045 10047 10050 10053 10056 10059 10062 10064 10067 10069 10072 10077 10080 10083 10087 10091 10095 10099 10104 10108 10112 10117 10123 10128 10132 10136 10140 10146 10149 10152
10037 10036 10034 10032 10030 10028 10027 10025 10023 10021 10020 10018 10017 10015 10013 10012 10011 10010 10009 10008 10008 10007 10006 10005 10005 10004 10004 10004 10004 10004 10004 10004 10004 10004 10004 10005 10006 10007 10008 10008 10010 10012 10013 10015 10017 10018 10019 10020 10022 10023 10025 10027 10030 10032 10034 10036 10038 10042 10044 10047 10050 10053 10055 10058 10060 10063 10067 10071 10075 10078 10082 10085 10089 10093 10098 10102 10107 10112 10117 10122 10125 10130 10135 10140 10143 10146